Time,TemperatureF,DewpointF,PressureIn,WindDirection,WindDirectionDegrees,WindSpeedMPH,WindSpeedGustMPH,Humidity,HourlyPrecipIn,Conditions,Clouds,dailyrainin,SoftwareType,DateUTC
2013-06-28 00:02:00,61.0,-99.9,-100.00,North,-999,-999.0,-999.0,-999,0.00,,,0.01,,2013-06-28 06:02:00,
2013-06-28 00:12:00,61.0,-99.9,-100.00,North,-999,-999.0,-999.0,-999,0.00,,,0.01,,2013-06-28 06:12:00,
2013-06-28 00:22:00,61.0,-99.9,-100.00,North,-999,-999.0,-999.0,-999,0.00,,,0.01,,2013-06-28 06:22:00,
2013-06-28 00:30:00,63.0,-99.9,-100.00,North,-999,-999.0,-999.0,-999,-99.99,,,-99.99,,2013-06-28 06:30:00,
2013-06-28 01:01:00,63.0,-99.9,-100.00,North,-999,-999.0,-999.0,-999,-99.99,,,-99.99,,2013-06-28 07:01:00,
2013-06-28 01:12:00,63.0,-99.9,-100.00,North,-999,-999.0,-999.0,-999,-99.99,,,-99.99,,2013-06-28 07:12:00,
2013-06-28 01:22:00,63.0,-99.9,-100.00,North,-999,-999.0,-999.0,-999,-99.99,,,-99.99,,2013-06-28 07:22:00,
2013-06-28 01:30:00,62.0,-99.9,-100.00,North,-999,-999.0,-999.0,-999,-99.99,,,0.01,,2013-06-28 07:30:00,
2013-06-28 02:02:00,62.0,-99.9,-100.00,North,-999,-999.0,-999.0,-999,-99.99,,,0.01,,2013-06-28 08:02:00,
2013-06-28 02:11:00,62.0,-99.9,-100.00,North,-999,-999.0,-999.0,-999,-99.99,,,0.01,,2013-06-28 08:11:00,
2013-06-28 02:22:00,62.0,-99.9,-100.00,North,-999,-999.0,-999.0,-999,-99.99,,,0.01,,2013-06-28 08:22:00,
2013-06-28 02:30:00,61.0,-99.9,-100.00,North,-999,-999.0,-999.0,-999,-99.99,,,0.01,,2013-06-28 08:30:00,
2013-06-28 03:02:00,61.0,-99.9,-100.00,North,-999,-999.0,-999.0,-999,-99.99,,,0.01,,2013-06-28 09:02:00,
2013-06-28 03:12:00,61.0,-99.9,-100.00,North,-999,-999.0,-999.0,-999,-99.99,,,0.01,,2013-06-28 09:12:00,
2013-06-28 03:22:00,61.0,-99.9,-100.00,North,-999,-999.0,-999.0,-999,-99.99,,,0.01,,2013-06-28 09:22:00,
2013-06-28 03:30:00,59.0,-99.9,-100.00,North,-999,-999.0,-999.0,-999,0.01,,,0.01,,2013-06-28 09:30:00,
2013-06-28 04:02:00,59.0,-99.9,-100.00,North,-999,-999.0,-999.0,-999,0.01,,,0.01,,2013-06-28 10:02:00,
2013-06-28 04:12:00,59.0,-99.9,-100.00,North,-999,-999.0,-999.0,-999,0.01,,,0.01,,2013-06-28 10:12:00,
2013-06-28 04:22:00,59.0,-99.9,-100.00,North,-999,-999.0,-999.0,-999,0.01,,,0.01,,2013-06-28 10:22:00,
2013-06-28 05:11:00,58.0,-99.9,-100.00,North,-999,-999.0,-999.0,-999,-99.99,,,0.02,,2013-06-28 11:11:00,
2013-06-28 05:22:00,58.0,-99.9,-100.00,North,-999,-999.0,-999.0,-999,-99.99,,,0.02,,2013-06-28 11:22:00,
2013-06-28 05:30:00,54.0,-99.9,-100.00,North,-999,-999.0,-999.0,-999,0.01,,,0.03,,2013-06-28 11:30:00,
2013-06-28 06:02:00,54.0,-99.9,-100.00,North,-999,-999.0,-999.0,-999,0.01,,,0.03,,2013-06-28 12:02:00,
2013-06-28 06:12:00,54.0,-99.9,-100.00,North,-999,-999.0,-999.0,-999,0.01,,,0.03,,2013-06-28 12:12:00,
2013-06-28 06:22:00,54.0,-99.9,-100.00,North,-999,-999.0,-999.0,-999,0.01,,,0.03,,2013-06-28 12:22:00,
2013-06-28 06:30:00,53.0,-99.9,-100.00,North,-999,-999.0,-999.0,-999,-99.99,,,0.00,,2013-06-28 12:30:00,
2013-06-28 07:02:00,53.0,-99.9,-100.00,North,-999,-999.0,-999.0,-999,-99.99,,,0.00,,2013-06-28 13:02:00,
2013-06-28 07:11:00,53.0,-99.9,-100.00,North,-999,-999.0,-999.0,-999,-99.99,,,0.00,,2013-06-28 13:11:00,
2013-06-28 07:23:00,53.0,-99.9,-100.00,North,-999,-999.0,-999.0,-999,-99.99,,,0.00,,2013-06-28 13:23:00,
2013-06-28 07:30:00,54.0,-99.9,-100.00,North,-999,-999.0,-999.0,-999,0.00,,,0.02,,2013-06-28 13:30:00,
2013-06-28 08:02:00,54.0,-99.9,-100.00,North,-999,-999.0,-999.0,-999,0.00,,,0.02,,2013-06-28 14:02:00,
2013-06-28 08:22:00,54.0,-99.9,-100.00,North,-999,-999.0,-999.0,-999,0.00,,,0.02,,2013-06-28 14:22:00,
2013-06-28 08:30:00,59.0,-99.9,-100.00,North,-999,-999.0,-999.0,-999,0.00,,,-99.99,,2013-06-28 14:30:00,
2013-06-28 09:02:00,59.0,-99.9,-100.00,North,-999,-999.0,-999.0,-999,0.00,,,-99.99,,2013-06-28 15:02:00,
2013-06-28 09:11:00,59.0,-99.9,-100.00,North,-999,-999.0,-999.0,-999,0.00,,,-99.99,,2013-06-28 15:11:00,
2013-06-28 09:24:00,59.0,-99.9,-100.00,North,-999,-999.0,-999.0,-999,0.00,,,-99.99,,2013-06-28 15:24:00,
2013-06-28 09:30:00,66.0,-99.9,-100.00,North,-999,-999.0,-999.0,-999,0.00,,,-99.99,,2013-06-28 15:30:00,
2013-06-28 10:02:00,66.0,-99.9,-100.00,North,-999,-999.0,-999.0,-999,0.00,,,-99.99,,2013-06-28 16:02:00,
2013-06-28 10:11:00,66.0,-99.9,-100.00,North,-999,-999.0,-999.0,-999,0.00,,,-99.99,,2013-06-28 16:11:00,
2013-06-28 10:25:00,66.0,-99.9,-100.00,North,-999,-999.0,-999.0,-999,0.00,,,-99.99,,2013-06-28 16:25:00,
2013-06-28 10:30:00,69.0,-99.9,-100.00,North,-999,-999.0,-999.0,-999,0.01,,,0.00,,2013-06-28 16:30:00,
2013-06-28 11:02:00,69.0,-99.9,-100.00,North,-999,-999.0,-999.0,-999,0.01,,,0.00,,2013-06-28 17:02:00,
2013-06-28 11:11:00,69.0,-99.9,-100.00,North,-999,-999.0,-999.0,-999,0.01,,,0.00,,2013-06-28 17:11:00,
2013-06-28 11:22:00,69.0,-99.9,-100.00,North,-999,-999.0,-999.0,-999,0.01,,,0.00,,2013-06-28 17:22:00,
2013-06-28 11:30:00,73.0,-99.9,-100.00,North,-999,-999.0,-999.0,-999,0.00,,,0.00,,2013-06-28 17:30:00,
2013-06-28 12:02:00,73.0,-99.9,-100.00,North,-999,-999.0,-999.0,-999,0.00,,,0.00,,2013-06-28 18:02:00,
2013-06-28 12:12:00,73.0,-99.9,-100.00,North,-999,-999.0,-999.0,-999,0.00,,,0.00,,2013-06-28 18:12:00,
2013-06-28 12:22:00,73.0,-99.9,-100.00,North,-999,-999.0,-999.0,-999,0.00,,,0.00,,2013-06-28 18:22:00,
2013-06-28 12:30:00,77.0,-99.9,-100.00,North,-999,-999.0,-999.0,-999,-99.99,,,-99.99,,2013-06-28 18:30:00,
2013-06-28 12:52:00,77.0,-99.9,-100.00,North,-999,-999.0,-999.0,-999,-99.99,,,-99.99,,2013-06-28 18:52:00,
2013-06-28 13:01:00,77.0,-99.9,-100.00,North,-999,-999.0,-999.0,-999,-99.99,,,-99.99,,2013-06-28 19:01:00,
2013-06-28 13:11:00,77.0,-99.9,-100.00,North,-999,-999.0,-999.0,-999,-99.99,,,-99.99,,2013-06-28 19:11:00,
2013-06-28 13:22:00,77.0,-99.9,-100.00,North,-999,-999.0,-999.0,-999,-99.99,,,-99.99,,2013-06-28 19:22:00,
2013-06-28 13:30:00,80.0,-99.9,-100.00,North,-999,-999.0,-999.0,-999,0.02,,,0.00,,2013-06-28 19:30:00,
2013-06-28 14:02:00,80.0,-99.9,-100.00,North,-999,-999.0,-999.0,-999,0.02,,,0.00,,2013-06-28 20:02:00,
2013-06-28 14:11:00,80.0,-99.9,-100.00,North,-999,-999.0,-999.0,-999,0.02,,,0.00,,2013-06-28 20:11:00,
2013-06-28 14:22:00,80.0,-99.9,-100.00,North,-999,-999.0,-999.0,-999,0.02,,,0.00,,2013-06-28 20:22:00,
2013-06-28 14:30:00,83.0,-99.9,-100.00,North,-999,-999.0,-999.0,-999,0.01,,,0.00,,2013-06-28 20:30:00,
2013-06-28 15:02:00,83.0,-99.9,-100.00,North,-999,-999.0,-999.0,-999,0.01,,,0.00,,2013-06-28 21:02:00,
2013-06-28 15:11:00,83.0,-99.9,-100.00,North,-999,-999.0,-999.0,-999,0.01,,,0.00,,2013-06-28 21:11:00,
2013-06-28 15:23:00,83.0,-99.9,-100.00,North,-999,-999.0,-999.0,-999,0.01,,,0.00,,2013-06-28 21:23:00,
2013-06-28 15:30:00,84.0,-99.9,-100.00,North,-999,-999.0,-999.0,-999,0.00,,,0.01,,2013-06-28 21:30:00,
2013-06-28 15:53:00,84.0,-99.9,-100.00,North,-999,-999.0,-999.0,-999,0.00,,,0.01,,2013-06-28 21:53:00,
2013-06-28 16:01:00,84.0,-99.9,-100.00,North,-999,-999.0,-999.0,-999,0.00,,,0.01,,2013-06-28 22:01:00,
2013-06-28 16:11:00,84.0,-99.9,-100.00,North,-999,-999.0,-999.0,-999,0.00,,,0.01,,2013-06-28 22:11:00,
2013-06-28 16:22:00,84.0,-99.9,-100.00,North,-999,-999.0,-999.0,-999,0.00,,,0.01,,2013-06-28 22:22:00,
2013-06-28 16:30:00,86.0,-99.9,-100.00,North,-999,-999.0,-999.0,-999,-99.99,,,0.00,,2013-06-28 22:30:00,
2013-06-28 17:02:00,86.0,-99.9,-100.00,North,-999,-999.0,-999.0,-999,-99.99,,,0.00,,2013-06-28 23:02:00,
2013-06-28 17:11:00,86.0,-99.9,-100.00,North,-999,-999.0,-999.0,-999,-99.99,,,0.00,,2013-06-28 23:11:00,
2013-06-28 17:23:00,86.0,-99.9,-100.00,North,-999,-999.0,-999.0,-999,-99.99,,,0.00,,2013-06-28 23:23:00,
2013-06-28 17:30:00,86.0,-99.9,-100.00,North,-999,-999.0,-999.0,-999,0.00,,,0.00,,2013-06-28 23:30:00,
2013-06-28 17:53:00,86.0,-99.9,-100.00,North,-999,-999.0,-999.0,-999,0.00,,,0.00,,2013-06-28 23:53:00,
2013-06-28 18:02:00,86.0,-99.9,-100.00,North,-999,-999.0,-999.0,-999,0.00,,,0.00,,2013-06-29 00:02:00,
2013-06-28 18:12:00,86.0,-99.9,-100.00,North,-999,-999.0,-999.0,-999,0.00,,,0.00,,2013-06-29 00:12:00,
2013-06-28 18:23:00,86.0,-99.9,-100.00,North,-999,-999.0,-999.0,-999,0.00,,,0.00,,2013-06-29 00:23:00,
2013-06-28 18:30:00,85.0,-99.9,-100.00,North,-999,-999.0,-999.0,-999,0.00,,,-99.99,,2013-06-29 00:30:00,
2013-06-28 18:52:00,85.0,-99.9,-100.00,North,-999,-999.0,-999.0,-999,0.00,,,-99.99,,2013-06-29 00:52:00,
2013-06-28 19:01:00,85.0,-99.9,-100.00,North,-999,-999.0,-999.0,-999,0.00,,,-99.99,,2013-06-29 01:01:00,
2013-06-28 19:11:00,85.0,-99.9,-100.00,North,-999,-999.0,-999.0,-999,0.00,,,-99.99,,2013-06-29 01:11:00,
2013-06-28 19:22:00,85.0,-99.9,-100.00,North,-999,-999.0,-999.0,-999,0.00,,,-99.99,,2013-06-29 01:22:00,
2013-06-28 19:30:00,83.0,-99.9,-100.00,North,-999,-999.0,-999.0,-999,-99.99,,,-99.99,,2013-06-29 01:30:00,
2013-06-28 19:52:00,83.0,-99.9,-100.00,North,-999,-999.0,-999.0,-999,-99.99,,,-99.99,,2013-06-29 01:52:00,
2013-06-28 20:01:00,83.0,-99.9,-100.00,North,-999,-999.0,-999.0,-999,-99.99,,,-99.99,,2013-06-29 02:01:00,
2013-06-28 20:11:00,83.0,-99.9,-100.00,North,-999,-999.0,-999.0,-999,-99.99,,,-99.99,,2013-06-29 02:11:00,
2013-06-28 20:21:00,83.0,-99.9,-100.00,North,-999,-999.0,-999.0,-999,-99.99,,,-99.99,,2013-06-29 02:21:00,
2013-06-28 20:30:00,73.0,-99.9,-100.00,North,-999,-999.0,-999.0,-999,0.00,,,-99.99,,2013-06-29 02:30:00,
2013-06-28 21:30:00,69.0,-99.9,-100.00,North,-999,-999.0,-999.0,-999,-99.99,,,-99.99,,2013-06-29 03:30:00,
2013-06-28 21:51:00,69.0,-99.9,-100.00,North,-999,-999.0,-999.0,-999,-99.99,,,-99.99,,2013-06-29 03:51:00,
2013-06-28 22:01:00,69.0,-99.9,-100.00,North,-999,-999.0,-999.0,-999,-99.99,,,-99.99,,2013-06-29 04:01:00,
2013-06-28 22:11:00,69.0,-99.9,-100.00,North,-999,-999.0,-999.0,-999,-99.99,,,-99.99,,2013-06-29 04:11:00,
2013-06-28 22:26:00,69.0,-99.9,-100.00,North,-999,-999.0,-999.0,-999,-99.99,,,-99.99,,2013-06-29 04:26:00,
2013-06-28 22:30:00,68.0,-99.9,-100.00,North,-999,-999.0,-999.0,-999,0.01,,,-99.99,,2013-06-29 04:30:00,
2013-06-28 23:30:00,67.0,-99.9,-100.00,North,-999,-999.0,-999.0,-999,0.00,,,-99.99,,2013-06-29 05:30:00,
2013-06-28 23:52:00,67.0,-99.9,-100.00,North,-999,-999.0,-999.0,-999,0.00,,,-99.99,,2013-06-29 05:52:00,